星链-4287 (STARLINK-4287 )

导读 | 豆包AI

STARLINK-4287是美国太空探索技术公司SpaceX星链卫星互联网项目的卫星,于2022年7月7日发射入轨,归属美国。它是星链低轨星座组网的组成单元,承担全球覆盖卫星互联网通信任务,运行在近地轨道,属于星链批量部署的新一代星链卫星,服务全球卫星互联网接入需求。

基本信息
目录编号:
53020
目录名称:
STARLINK-4287
国际标识:
2022-076AL
轨道中心:
EARTH
卫星名称:
星链-4287
卫星全名:
星链-4287 (STARLINK-4287 )
卫星状态:
在轨 (已飞行1347 天)
发射日期:
2022-07-07 UTC
国别 :
美国 (US)
星等 :
--
轨道信息
数据来源 国际轨道数据 AOE轨道数据
星历时间 2026-03-14T14:15:39+0800
20小时前
查看轨道信息
2026-03-12T14:00:00+0800
2天前
查看轨道信息
半长轴 6917.88km 6917.867km
偏心率 0.0001302 0.0001433
轨道倾角 53.217° 53.217°
近地点辐角 85.980° 82.643°
升交点赤经 63.597° 72.626°
平近点角 274.134° 148.846°
近地点 538.842km 538.738km
远地点 540.644km 540.722km
周期 95.438分钟 95.437分钟
每日圈数 15.088402 15.088444
详细信息
固有亮度:
5
最大亮度:
2.5
卫星平台:
Starlink v1.5
覆盖范围:
全球
运营商:
太空探索技术公司
运营商所在国:
美国
制造商(研发单位):
太空探索技术公司
制造商所在国:
美国
使用方式:
暂无
卫星简介
星链(Starlink)计划是由太空探索技术公司(SpaceX)提出的一个巨型低轨卫星互联网星座项目,计划在2019年至2024年间在太空搭建由约1.2万颗卫星组成的“星链”网络,其中1584颗将部署在地球上空550千米处的近地轨道,并从2020年开始工作。该卫星仍在工作。
2D轨道图
3D轨道图
轨道高度分析图
轨道倾角分析图
轨道综合分析图
查看轨道综合分析图